Temp
-16 -16 -16 -16 -16 -16 -16 -16 -16 -16 -16 -16 -16 -16 -17 -17 -18 -18 -18 -19 -20 -20 -20 -20 -20 -20 -20 -20 -21 -21 -21 -21 -22 -22 -22 -22 -23 -24 -26 -27 -27 -27 -27 -27
-16 -16 -16 -16 -16 -16 -16 -16 -16 -16 -16 -16 -17 -17 -18 -19 -19 -19 -19 -20 -20 -21 -20 -21 -21 -21 -21 -21 -21 -21 -22 -23 -23 -23 -23 -24 -25 -27 -27 -27 -28 -28 -28 -28
-16 -16 -16 -16 -16 -16 -16 -17 -16 -16 -16 -17 -18 -18 -19 -19 -19 -19 -20 -20 -20 -20 -20 -21 -21 -21 -21 -21 -22 -23 -23 -24 -24 -24 -26 -27 -28 -28 -28 -28 -28 -28 -28 -28
-16 -16 -15 -17 -16 -17 -16 -17 -17 -17 -18 -18 -18 -19 -19 -20 -20 -21 -21 -20 -20 -21 -21 -21 -22 -22 -22 -23 -23 -24 -25 -24 -25 -26 -27 -28 -28 -28 -28 -28 -28 -28 -28 -28
-16 -15 -15 -17 -16 -16 -16 -17 -18 -18 -19 -19 -20 -20 -20 -20 -20 -21 -20 -20 -21 -21 -22 -22 -23 -23 -24 -24 -25 -25 -25 -25 -27 -28 -28 -28 -28 -28 -28 -28 -28 -28 -28 -29
-17 -16 -15 -18 -18 -18 -17 -17 -18 -18 -18 -19 -20 -20 -19 -20 -20 -21 -21 -22 -22 -22 -22 -23 -23 -24 -25 -25 -25 -25 -26 -27 -28 -29 -29 -29 -29 -29 -29 -28 -28 -29 -29 -29
-18 -17 -17 -19 -18 -18 -18 -17 -18 -19 -20 -20 -20 -21 -21 -21 -21 -22 -23 -23 -23 -23 -24 -24 -24 -25 -25 -25 -26 -27 -28 -29 -29 -29 -29 -29 -29 -29 -29 -29 -29 -29 -29 -29
-17 -18 -18 -19 -19 -20 -20 -19 -20 -20 -20 -20 -21 -21 -22 -22 -22 -23 -23 -23 -23 -24 -24 -25 -26 -26 -26 -27 -27 -29 -29 -29 -29 -29 -29 -29 -29 -29 -29 -29 -29 -29 -29 -29
-19 -18 -19 -20 -20 -20 -21 -20 -21 -21 -21 -21 -21 -22 -22 -22 -23 -23 -23 -24 -25 -25 -26 -26 -26 -27 -27 -28 -29 -29 -29 -29 -30 -30 -29 -29 -30 -30 -30 -30 -29 -29 -30 -30
-19 -19 -20 -20 -20 -21 -21 -21 -21 -21 -21 -22 -22 -22 -23 -23 -23 -24 -24 -25 -26 -26 -27 -27 -27 -27 -28 -29 -29 -29 -30 -30 -30 -30 -30 -30 -30 -30 -30 -30 -30 -30 -30 -31
-19 -20 -19 -20 -21 -20 -21 -21 -21 -22 -22 -23 -23 -23 -23 -23 -24 -25 -25 -26 -27 -27 -27 -27 -28 -29 -29 -30 -30 -30 -30 -30 -30 -30 -30 -30 -30 -31 -31 -31 -31 -31 -32 -32
-20 -21 -20 -20 -20 -20 -21 -21 -22 -23 -23 -23 -22 -23 -24 -24 -25 -27 -27 -27 -28 -28 -28 -28 -29 -30 -30 -30 -30 -30 -30 -30 -31 -30 -31 -31 -32 -33 -34 -34 -34 -34 -34 -33
-20 -21 -21 -21 -21 -21 -22 -22 -22 -23 -23 -23 -24 -25 -25 -26 -27 -27 -28 -28 -29 -29 -29 -30 -30 -30 -30 -30 -30 -30 -31 -31 -31 -31 -33 -33 -34 -35 -36 -36 -36 -35 -34 -34
-21 -21 -21 -22 -22 -22 -23 -23 -24 -23 -24 -26 -26 -26 -26 -27 -27 -28 -28 -29 -29 -30 -30 -30 -30 -30 -30 -30 -30 -30 -31 -31 -32 -34 -34 -35 -36 -36 -36 -35 -36 -35 -34 -34
-21 -21 -22 -22 -22 -23 -23 -24 -25 -25 -26 -26 -27 -27 -27 -27 -28 -29 -29 -30 -30 -30 -30 -30 -30 -30 -30 -31 -31 -31 -32 -33 -34 -35 -35 -36 -36 -35 -35 -35 -35 -35 -34 -34
-22 -22 -23 -23 -23 -24 -24 -25 -26 -26 -27 -27 -28 -28 -28 -28 -29 -30 -30 -30 -30 -30 -30 -30 -31 -31 -31 -31 -31 -32 -34 -35 -35 -35 -36 -36 -35 -35 -35 -35 -35 -34 -34 -33
-23 -23 -24 -24 -25 -26 -26 -27 -28 -28 -28 -28 -29 -29 -30 -30 -30 -30 -31 -31 -30 -30 -30 -31 -31 -31 -31 -31 -33 -34 -35 -35 -36 -36 -36 -36 -35 -35 -35 -35 -34 -34 -34 -33
-24 -25 -26 -26 -27 -27 -28 -28 -28 -28 -29 -29 -30 -30 -30 -31 -30 -31 -31 -30 -30 -30 -31 -31 -31 -31 -31 -32 -34 -34 -35 -35 -36 -36 -36 -36 -35 -35 -35 -34 -34 -33 -33 -33
-25 -26 -27 -27 -28 -28 -28 -29 -29 -30 -30 -30 -31 -31 -31 -31 -31 -31 -31 -31 -31 -31 -31 -31 -31 -31 -32 -33 -34 -35 -35 -36 -36 -36 -36 -36 -35 -35 -35 -34 -34 -33 -33 -32
-27 -28 -28 -28 -28 -29 -29 -30 -30 -30 -30 -31 -31 -31 -31 -31 -31 -31 -31 -31 -31 -31 -31 -31 -32 -32 -32 -34 -34 -35 -36 -36 -36 -36 -36 -36 -35 -35 -35 -34 -34 -33 -33 -32
-28 -28 -28 -29 -29 -30 -30 -31 -31 -31 -31 -31 -31 -31 -31 -31 -31 -31 -31 -31 -31 -32 -32 -32 -32 -32 -33 -33 -34 -35 -36 -36 -36 -36 -36 -36 -36 -35 -35 -34 -34 -33 -33 -32
-29 -29 -29 -30 -30 -30 -31 -31 -31 -31 -31 -31 -32 -32 -32 -31 -31 -31 -31 -31 -32 -32 -32 -32 -33 -33 -33 -33 -34 -35 -35 -35 -36 -36 -36 -36 -36 -35 -35 -34 -34 -33 -33 -32
-29 -30 -30 -30 -31 -31 -31 -31 -32 -32 -32 -32 -32 -32 -32 -31 -31 -31 -31 -32 -32 -32 -32 -33 -33 -33 -33 -34 -34 -35 -35 -36 -36 -36 -36 -36 -36 -35 -35 -35 -34 -34 -33 -32
-30 -31 -31 -31 -31 -31 -32 -32 -33 -33 -33 -33 -32 -32 -32 -32 -31 -31 -32 -32 -32 -32 -33 -33 -33 -33 -34 -34 -34 -34 -35 -36 -36 -36 -36 -36 -36 -35 -35 -35 -35 -34 -34 -33
-31 -31 -31 -31 -31 -32 -33 -34 -34 -33 -33 -33 -33 -32 -32 -32 -32 -32 -32 -32 -33 -33 -33 -33 -33 -33 -34 -34 -34 -35 -35 -35 -36 -36 -36 -36 -36 -36 -36 -35 -35 -35 -34 -34
-31 -32 -32 -32 -32 -33 -33 -33 -33 -33 -33 -33 -32 -32 -32 -32 -32 -32 -32 -32 -33 -33 -33 -33 -34 -34 -34 -34 -35 -35 -35 -35 -36 -36 -36 -36 -36 -36 -36 -36 -35 -35 -35 -34
-32 -32 -32 -32 -33 -33 -33 -33 -33 -33 -33 -32 -32 -32 -32 -32 -32 -32 -32 -33 -33 -34 -34 -34 -34 -34 -34 -35 -35 -35 -35 -36 -36 -36 -36 -36 -36 -36 -36 -36 -36 -36 -35 -35
Height
5776 5771 5766 5767 5760 5755 5751 5749 5740 5737 5732 5726 5719 5713 5705 5699 5694 5688 5679 5670 5663 5654 5643 5633 5625 5613 5602 5590 5578 5565 5554 5542 5531 5520 5509 5499 5489 5480 5472 5464 5459 5453 5448 5443
5770 5762 5756 5758 5751 5745 5741 5735 5729 5723 5719 5713 5707 5700 5693 5687 5680 5673 5664 5654 5647 5638 5627 5618 5606 5595 5583 5570 5559 5546 5534 5522 5511 5499 5488 5477 5468 5462 5456 5449 5443 5438 5433 5428
5754 5752 5746 5752 5743 5737 5731 5728 5721 5715 5710 5705 5698 5688 5680 5675 5667 5657 5648 5643 5633 5621 5611 5600 5589 5576 5563 5551 5538 5527 5514 5501 5490 5480 5471 5464 5457 5449 5443 5437 5432 5426 5420 5414
5742 5739 5734 5741 5730 5725 5719 5714 5709 5702 5695 5689 5684 5677 5668 5660 5648 5640 5635 5628 5618 5607 5596 5582 5569 5556 5543 5531 5518 5507 5497 5485 5473 5463 5455 5449 5443 5437 5431 5425 5420 5413 5406 5399
5735 5727 5723 5729 5717 5712 5703 5700 5694 5690 5685 5680 5672 5666 5658 5647 5637 5627 5619 5608 5596 5585 5574 5563 5550 5538 5527 5514 5502 5491 5479 5467 5457 5449 5442 5437 5432 5425 5418 5412 5406 5399 5391 5384
5726 5718 5712 5715 5706 5699 5691 5689 5682 5676 5671 5663 5655 5647 5642 5631 5620 5610 5597 5588 5578 5567 5555 5543 5531 5520 5509 5498 5486 5474 5460 5450 5441 5434 5428 5422 5416 5410 5405 5399 5392 5385 5378 5370
5717 5712 5705 5705 5696 5687 5681 5677 5667 5661 5655 5647 5639 5629 5621 5612 5605 5595 5586 5575 5563 5550 5539 5528 5516 5502 5491 5479 5469 5455 5444 5436 5428 5421 5415 5409 5404 5397 5391 5384 5377 5371 5365 5356
5705 5696 5693 5686 5678 5674 5668 5660 5655 5650 5641 5633 5625 5617 5607 5597 5587 5579 5570 5559 5547 5534 5523 5511 5500 5488 5475 5462 5449 5440 5433 5425 5417 5410 5404 5397 5391 5383 5376 5369 5363 5357 5350 5343
5699 5687 5683 5675 5668 5662 5653 5646 5641 5634 5627 5619 5611 5602 5591 5583 5575 5563 5551 5540 5528 5517 5507 5497 5483 5472 5459 5446 5437 5429 5421 5413 5406 5398 5391 5384 5376 5369 5361 5354 5348 5342 5336 5331
5677 5683 5671 5661 5657 5649 5644 5637 5630 5622 5614 5604 5596 5586 5578 5566 5554 5543 5532 5520 5510 5499 5489 5480 5468 5455 5443 5433 5425 5417 5410 5402 5394 5386 5378 5369 5361 5354 5345 5338 5332 5328 5322 5318
5666 5665 5655 5651 5643 5637 5630 5622 5613 5604 5595 5586 5577 5568 5559 5549 5537 5526 5514 5503 5493 5483 5471 5457 5448 5439 5431 5422 5414 5406 5398 5390 5381 5373 5364 5355 5346 5337 5329 5321 5315 5312 5309 5306
5652 5648 5638 5638 5629 5623 5614 5606 5596 5587 5580 5570 5560 5550 5540 5530 5519 5509 5498 5489 5478 5466 5456 5444 5435 5428 5420 5412 5404 5396 5387 5378 5369 5359 5350 5341 5331 5322 5313 5306 5301 5298 5296 5296
5637 5634 5627 5620 5614 5605 5598 5589 5583 5574 5564 5553 5542 5531 5521 5512 5503 5494 5482 5470 5459 5449 5441 5432 5424 5418 5410 5402 5393 5385 5377 5366 5356 5346 5336 5327 5319 5312 5306 5299 5291 5290 5287 5288
5623 5617 5613 5605 5597 5590 5582 5574 5565 5553 5543 5534 5525 5514 5504 5496 5488 5478 5466 5455 5444 5436 5428 5422 5415 5407 5400 5393 5383 5374 5365 5354 5344 5335 5327 5319 5312 5305 5299 5293 5288 5284 5282 5283
5608 5603 5597 5589 5581 5571 5563 5554 5546 5537 5528 5519 5510 5500 5491 5483 5473 5462 5452 5443 5434 5427 5420 5412 5405 5398 5390 5382 5373 5363 5353 5343 5335 5327 5320 5313 5307 5299 5293 5288 5284 5281 5280 5281
5589 5582 5576 5570 5563 5554 5546 5538 5531 5523 5514 5504 5495 5487 5478 5467 5456 5447 5440 5432 5426 5419 5411 5404 5397 5389 5381 5372 5362 5352 5343 5336 5329 5322 5315 5308 5301 5295 5289 5284 5281 5279 5278 5279
5570 5563 5557 5551 5544 5538 5528 5519 5511 5503 5496 5489 5480 5470 5460 5452 5444 5435 5428 5422 5416 5410 5404 5397 5390 5382 5373 5363 5353 5345 5338 5330 5323 5317 5311 5304 5297 5291 5286 5282 5279 5278 5277 5278
5553 5546 5539 5531 5525 5518 5512 5504 5496 5487 5478 5471 5463 5455 5447 5440 5433 5425 5420 5414 5408 5403 5397 5391 5384 5375 5365 5356 5347 5340 5333 5326 5320 5314 5307 5300 5294 5289 5284 5281 5278 5276 5277 5277
5537 5530 5523 5513 5505 5498 5491 5484 5477 5469 5462 5455 5449 5441 5434 5428 5421 5417 5413 5407 5401 5396 5390 5384 5377 5368 5359 5350 5343 5336 5329 5323 5317 5311 5305 5298 5292 5287 5282 5279 5277 5276 5276 5276
5520 5512 5505 5497 5492 5483 5475 5466 5459 5453 5447 5441 5435 5429 5423 5417 5413 5410 5405 5400 5395 5391 5386 5379 5371 5363 5355 5346 5339 5332 5326 5320 5313 5308 5302 5297 5291 5286 5282 5278 5276 5275 5275 5275
5504 5497 5491 5483 5475 5468 5458 5449 5442 5437 5432 5427 5422 5417 5413 5409 5406 5402 5397 5393 5389 5385 5380 5374 5367 5359 5351 5343 5336 5330 5324 5318 5311 5306 5301 5296 5290 5286 5281 5278 5276 5275 5274 5274
5489 5482 5474 5466 5457 5450 5444 5435 5426 5420 5415 5411 5409 5407 5404 5401 5398 5394 5391 5387 5383 5380 5375 5369 5362 5355 5348 5341 5334 5327 5321 5315 5310 5305 5300 5295 5291 5286 5281 5278 5276 5274 5273 5273
5471 5464 5456 5449 5440 5432 5427 5417 5408 5403 5400 5398 5398 5397 5396 5394 5391 5387 5384 5381 5377 5374 5370 5364 5358 5352 5345 5338 5331 5325 5319 5313 5309 5305 5300 5296 5291 5286 5282 5278 5276 5274 5272 5271
5452 5446 5438 5431 5423 5415 5407 5400 5394 5391 5390 5389 5389 5389 5388 5386 5384 5381 5377 5374 5372 5368 5364 5359 5354 5347 5342 5336 5329 5323 5317 5312 5307 5304 5300 5295 5291 5287 5282 5278 5276 5274 5272 5270
5436 5429 5423 5415 5408 5401 5395 5389 5386 5383 5383 5383 5383 5382 5381 5379 5377 5374 5371 5368 5365 5362 5358 5354 5349 5343 5338 5332 5326 5320 5315 5310 5305 5302 5298 5294 5291 5287 5283 5279 5275 5273 5271 5269
5421 5415 5409 5403 5397 5391 5388 5384 5382 5380 5379 5378 5377 5376 5374 5373 5370 5368 5365 5362 5359 5356 5352 5348 5343 5338 5333 5327 5322 5317 5312 5307 5303 5299 5295 5291 5288 5285 5282 5278 5275 5272 5270 5268
5409 5403 5399 5395 5390 5385 5382 5379 5377 5375 5374 5372 5371 5370 5368 5366 5363 5361 5358 5355 5352 5349 5346 5341 5337 5332 5327 5322 5317 5312 5307 5303 5299 5295 5291 5288 5284 5282 5279 5276 5273 5270 5268 5266
Wind_Speed
26 31 36 33 35 37 39 36 41 37 39 41 45 47 48 46 50 55 53 54 58 58 62 66 68 72 77 80 79 79 79 79 80 81 79 76 72 64 54 48 48 47 47 48
30 37 41 36 35 37 37 36 40 42 44 44 44 45 49 48 54 53 54 53 62 67 65 67 74 80 81 79 79 81 82 84 84 82 75 70 62 54 49 49 47 48 48 50
41 38 40 30 32 35 37 37 42 43 41 39 42 49 50 52 53 52 51 58 66 67 69 75 78 79 80 82 82 83 86 87 84 77 64 52 49 48 48 47 47 46 50 53
43 41 44 27 38 40 45 44 43 43 45 49 51 53 54 53 57 54 57 60 66 71 74 74 78 80 83 83 85 87 89 85 77 64 55 48 45 45 46 46 45 49 51 50
39 45 49 36 44 48 53 52 50 47 52 52 52 53 53 55 55 59 65 74 76 76 76 78 83 84 85 86 90 95 91 81 65 53 48 45 43 43 43 45 50 51 50 50
40 47 52 42 48 52 56 56 55 58 59 58 57 59 60 60 65 71 74 79 80 81 81 83 89 90 90 93 98 98 84 65 54 49 46 46 45 45 47 51 51 50 50 51
41 45 50 45 50 51 55 61 63 63 62 62 62 62 64 70 73 72 71 78 82 82 82 87 92 89 92 92 94 82 62 54 51 49 47 46 46 49 52 53 52 51 51 51
47 52 53 52 52 52 58 61 62 62 63 63 64 66 69 72 68 75 77 77 80 82 82 83 82 89 93 90 75 60 53 53 51 48 46 47 51 54 54 53 53 52 50 47
47 53 48 49 54 58 59 62 64 63 63 65 67 70 72 71 69 80 79 81 83 84 85 89 92 87 84 64 56 52 54 52 49 48 50 54 56 56 56 56 53 50 46 43
55 49 54 57 57 58 61 63 63 65 66 67 68 70 61 70 75 85 83 83 85 88 86 88 87 85 61 53 52 54 53 50 50 53 56 57 58 58 57 55 52 47 43 38
59 55 62 60 62 64 64 65 68 69 62 60 75 76 75 74 80 82 83 81 84 87 91 91 78 58 50 52 53 52 50 52 55 57 58 59 59 57 55 52 49 43 36 28
59 57 65 64 68 65 67 69 66 69 67 77 80 77 78 76 76 79 81 86 87 84 83 67 52 47 51 52 50 50 54 56 58 59 60 58 54 50 49 46 44 36 26 16
62 63 65 68 65 69 70 69 71 71 75 75 75 76 75 74 74 84 86 81 78 68 54 44 46 50 50 49 50 53 55 58 59 58 53 49 46 41 37 37 35 27 18 13
62 67 67 67 69 70 68 67 69 73 69 71 76 70 74 74 82 85 80 68 57 47 43 45 49 49 47 49 52 55 58 57 53 46 42 39 35 35 34 29 25 23 15 9
65 67 68 69 69 70 70 69 62 61 65 72 76 75 78 80 83 73 64 52 41 42 45 49 47 47 48 50 55 57 54 47 42 39 36 34 34 33 29 26 21 13 12 8
67 68 68 69 69 69 71 70 62 66 74 76 73 78 83 75 68 60 52 42 40 43 47 44 45 46 49 54 54 49 42 39 37 35 34 33 32 28 27 23 13 12 9 7
66 67 67 67 69 68 67 66 67 69 71 74 75 73 66 62 58 49 40 40 42 44 41 41 42 46 50 51 45 40 38 35 34 33 33 32 28 26 23 15 14 10 6 7
66 64 62 63 65 66 66 66 70 72 72 69 64 61 59 56 49 39 37 40 41 38 38 38 42 45 46 44 39 37 34 33 32 30 33 28 26 24 19 14 13 7 5 7
66 65 65 66 68 70 71 71 70 69 64 60 59 58 54 47 38 34 36 38 35 35 34 38 40 41 42 39 37 34 31 32 30 30 32 28 25 21 17 15 10 5 6 6
64 63 63 67 69 71 70 69 67 63 62 59 56 52 44 40 31 34 36 32 33 29 32 35 36 38 41 37 36 32 32 34 33 29 27 25 24 20 18 15 9 5 6 6
63 66 68 69 69 69 67 66 66 64 61 56 50 41 38 29 31 33 30 32 27 27 31 33 34 35 38 36 35 33 31 34 29 24 24 24 23 20 18 14 8 6 6 6
65 67 68 69 67 64 63 65 66 64 58 46 37 32 28 28 30 29 30 27 23 26 30 32 33 34 36 37 34 34 31 30 24 23 23 23 24 22 19 14 10 8 7 7
67 67 66 63 64 66 65 61 58 52 43 29 25 25 25 27 27 29 29 22 22 26 29 31 34 36 37 37 36 33 31 28 23 24 22 23 23 22 19 15 11 9 8 7
63 61 62 63 64 59 54 48 42 36 23 20 21 22 24 24 26 28 23 21 23 26 29 32 34 36 38 38 36 33 32 27 22 23 24 21 22 21 19 17 14 11 9 8
60 62 61 57 50 44 39 30 24 18 18 19 20 22 20 23 26 25 22 22 23 26 30 33 34 35 36 37 35 33 30 29 24 22 22 23 21 20 20 18 16 14 11 9
57 53 46 40 36 32 26 23 20 19 17 18 19 19 22 25 25 23 22 24 25 27 30 33 35 35 35 36 35 32 30 28 27 24 23 22 21 21 19 18 16 13 13 11
42 36 33 32 30 29 26 23 20 18 17 18 18 20 22 25 22 21 24 25 27 29 31 33 36 35 35 36 35 33 30 28 27 26 26 24 23 20 19 18 18 16 13 12
Wind_Direction
304 302 302 315 313 309 304 307 305 310 310 308 305 308 310 315 315 315 311 315 312 311 309 310 311 312 314 313 310 310 310 311 312 312 312 311 310 309 306 300 293 291 293 293
312 308 310 322 311 306 308 312 312 313 313 311 314 314 313 312 315 311 300 302 311 308 309 312 312 314 313 310 309 310 312 314 314 314 313 313 311 308 303 299 300 300 296 297
311 311 307 320 308 309 309 311 310 311 311 310 312 314 315 314 312 314 305 299 305 310 312 311 311 309 307 308 312 313 315 317 316 314 313 308 304 299 298 297 297 297 299 300
309 311 305 326 311 312 310 313 316 316 317 318 317 315 314 313 313 311 306 308 309 310 311 311 310 309 309 312 314 317 319 315 314 313 310 306 301 298 297 298 299 301 303 303
307 305 307 324 312 314 312 314 314 313 314 317 315 317 314 311 308 307 311 314 315 314 312 310 310 308 309 312 315 319 318 314 314 311 307 303 301 300 301 304 305 306 306 306
307 307 310 324 314 313 311 313 312 314 318 319 317 314 315 313 314 316 314 315 314 312 310 308 307 309 308 310 313 313 315 315 314 313 309 307 307 307 306 308 308 307 307 308
304 308 309 313 310 308 309 312 314 318 320 317 317 315 316 314 314 315 312 309 308 307 305 303 304 308 309 311 313 315 315 316 315 312 311 309 306 307 310 310 309 308 308 309
311 310 317 314 310 307 309 309 314 317 316 315 314 313 311 312 308 307 307 306 307 308 309 309 310 312 315 313 314 316 315 314 313 310 308 308 309 311 310 309 308 309 309 308
311 306 312 306 302 306 307 312 314 314 313 311 310 310 311 311 302 304 306 305 307 309 307 306 308 314 318 314 315 314 314 314 312 310 311 312 312 310 309 309 308 309 308 307
303 311 304 302 304 304 306 309 308 308 308 307 308 312 298 293 297 303 305 305 306 308 309 309 311 316 315 315 315 315 315 313 311 312 313 312 311 311 310 310 309 308 306 304
303 304 299 302 302 303 309 308 308 310 309 305 308 307 305 299 297 304 305 306 308 312 311 313 317 315 315 316 316 316 313 313 315 314 313 313 313 312 311 308 306 305 303 295
300 300 299 303 301 306 308 308 310 309 303 304 304 303 302 300 297 306 306 306 309 310 311 313 315 316 317 317 315 314 315 316 315 314 315 316 315 312 311 310 309 309 303 274
297 297 297 301 305 305 306 307 305 303 299 298 300 300 301 299 296 307 312 313 313 314 315 316 318 318 318 316 315 316 316 316 316 318 319 317 316 318 317 315 312 310 295 272
295 296 299 300 301 302 303 301 300 301 300 300 301 297 291 296 303 309 311 314 316 317 318 319 318 319 318 317 318 318 317 318 319 320 321 323 324 322 320 318 311 307 296 266
295 295 296 298 300 300 301 303 301 293 289 293 295 291 293 299 308 312 314 316 318 319 320 319 320 319 320 320 319 319 320 322 324 326 326 326 326 326 323 323 320 307 293 254
294 296 298 298 300 302 303 303 291 287 292 291 292 298 305 309 312 315 316 316 319 318 319 320 321 322 322 321 321 324 326 327 328 329 329 330 330 328 327 329 322 313 293 257
298 299 301 302 304 304 302 301 297 296 297 301 305 308 311 312 314 315 314 318 317 317 319 321 324 323 323 323 328 329 330 330 331 331 334 334 332 332 331 332 320 313 278 258
300 302 304 305 305 304 302 301 303 304 306 308 309 310 311 313 314 310 314 316 317 317 320 325 325 327 328 332 333 333 334 334 334 339 338 336 336 336 332 327 323 309 263 256
300 301 302 303 306 307 308 307 305 307 308 308 309 310 312 314 310 310 314 315 316 319 324 327 330 334 337 336 335 336 339 342 339 336 339 340 340 339 332 333 328 298 260 257
304 305 305 305 306 306 306 304 304 305 306 307 308 310 310 310 308 313 313 314 316 321 326 331 337 343 343 340 340 337 337 338 336 336 340 343 344 343 336 340 330 294 272 265
300 301 303 304 304 303 302 303 303 303 302 304 304 307 308 308 311 311 312 314 315 323 329 335 341 347 348 344 343 339 335 342 343 344 346 349 352 346 340 343 335 313 285 278
300 301 302 302 302 302 302 301 299 300 302 299 297 300 301 307 309 311 312 311 315 320 328 339 343 348 349 348 343 343 340 345 348 348 348 351 352 349 344 344 342 325 298 284
299 300 301 303 303 303 303 302 300 300 303 290 294 296 298 304 307 310 310 308 314 319 326 335 341 346 349 346 346 343 343 344 347 347 347 350 351 350 347 341 342 331 311 291
301 302 303 304 305 305 305 306 303 302 292 292 299 297 298 301 307 310 305 310 314 312 319 329 334 341 342 344 343 345 344 339 337 341 348 343 347 348 348 346 335 331 317 304
301 302 304 305 306 309 311 315 310 296 295 298 296 296 294 304 307 307 306 308 309 313 319 323 329 333 337 337 339 340 341 342 335 332 328 338 341 340 345 346 339 330 314 298
301 303 303 307 312 314 315 315 307 298 296 297 296 294 294 298 303 305 306 307 308 311 316 321 326 328 331 334 334 333 334 336 337 329 334 330 326 335 331 337 338 331 321 305
300 303 309 313 309 312 310 306 301 296 297 297 300 300 294 301 301 306 308 308 308 308 312 317 322 324 326 327 327 328 326 326 328 325 328 324 328 319 322 324 323 330 326 313